{"data":{"norad_id":52848,"epoch":"2026-09-20T04:05:42.648000Z","epoch_age_seconds":94849,"freshness":"FRESH","line1":"1 52848U 22062U   26263.17063250 -.00002140  00000+0 -52244-4 0  9991","line2":"2 52848  53.1602 231.5459 0001143  94.4167 265.6966 15.34382509235274","mean_motion":15.34382509,"eccentricity":0.0001143,"inclination_deg":53.1602,"raan_deg":231.5459,"arg_perigee_deg":94.4167,"mean_anomaly_deg":265.6966,"bstar":-5.2244e-5,"rev_number":23527,"period_min":93.848827887023,"perigee_km":461.9733136574,"apogee_km":463.53714162063,"semimajor_km":6840.892227639,"source":"CELESTRAK","updated_at":"2026-09-20T09:00:40.114461Z"}}